TimeCDT,TemperatureF,Dew PointF,Humidity,Sea Level PressureIn,VisibilityMPH,Wind Direction,Wind SpeedMPH,Gust SpeedMPH,PrecipitationIn,Events,Conditions,WindDirDegrees,DateUTC
12:12 AM,51.8,44.6,76,29.91,10.0,ESE,8.1,-,N/A,,Clear,110,2013-09-22 05:12:00
12:32 AM,51.8,44.6,76,29.91,10.0,ESE,6.9,-,N/A,,Clear,110,2013-09-22 05:32:00
12:53 AM,53.6,46.4,77,29.91,10.0,ESE,8.1,-,N/A,,Scattered Clouds,110,2013-09-22 05:53:00
1:12 AM,51.8,44.6,76,29.91,10.0,ESE,9.2,-,N/A,,Scattered Clouds,110,2013-09-22 06:12:00
1:32 AM,51.8,46.4,82,29.91,10.0,ESE,8.1,-,N/A,,Clear,120,2013-09-22 06:32:00
1:53 AM,50.0,44.6,82,29.91,10.0,ESE,8.1,-,N/A,,Unknown,110,2013-09-22 06:53:00
2:12 AM,50.0,44.6,82,29.91,10.0,SE,8.1,-,N/A,,Clear,130,2013-09-22 07:12:00
2:32 AM,50.0,44.6,82,29.91,10.0,ESE,6.9,-,N/A,,Clear,120,2013-09-22 07:32:00
2:52 AM,51.8,44.6,76,29.91,10.0,ESE,9.2,-,N/A,,Clear,120,2013-09-22 07:52:00
3:12 AM,50.0,44.6,82,29.90,10.0,ESE,8.1,-,N/A,,Clear,120,2013-09-22 08:12:00
3:33 AM,50.0,44.6,82,29.90,10.0,SE,8.1,-,N/A,,Clear,130,2013-09-22 08:33:00
3:52 AM,50.0,44.6,82,29.90,10.0,ESE,6.9,-,N/A,,Clear,120,2013-09-22 08:52:00
4:12 AM,50.0,44.6,82,29.90,10.0,SE,6.9,-,N/A,,Clear,130,2013-09-22 09:12:00
4:33 AM,50.0,44.6,82,29.89,10.0,ESE,6.9,-,N/A,,Clear,120,2013-09-22 09:33:00
4:52 AM,48.2,44.6,87,29.89,10.0,ESE,8.1,-,N/A,,Clear,120,2013-09-22 09:52:00
5:12 AM,48.2,44.6,87,29.89,10.0,ESE,6.9,-,N/A,,Clear,120,2013-09-22 10:12:00
5:33 AM,48.2,44.6,87,29.88,10.0,ESE,6.9,-,N/A,,Clear,120,2013-09-22 10:33:00
5:52 AM,48.2,44.6,87,29.88,10.0,ESE,6.9,-,N/A,,Clear,120,2013-09-22 10:52:00
6:12 AM,48.2,44.6,87,29.88,10.0,SE,6.9,-,N/A,,Clear,130,2013-09-22 11:12:00
6:33 AM,51.8,44.6,76,29.88,10.0,SE,8.1,-,N/A,,Clear,130,2013-09-22 11:33:00
6:52 AM,51.8,46.4,82,29.88,10.0,SE,9.2,-,N/A,,Clear,140,2013-09-22 11:52:00
7:12 AM,51.8,46.4,82,29.88,10.0,SE,9.2,-,N/A,,Clear,140,2013-09-22 12:12:00
7:33 AM,51.8,46.4,82,29.88,10.0,SE,6.9,-,N/A,,Clear,140,2013-09-22 12:33:00
7:52 AM,53.6,46.4,77,29.88,10.0,SE,8.1,-,N/A,,Clear,140,2013-09-22 12:52:00
8:12 AM,53.6,46.4,77,29.88,10.0,SE,9.2,-,N/A,,Clear,140,2013-09-22 13:12:00
8:33 AM,55.4,46.4,72,29.87,10.0,SE,13.8,18.4,N/A,,Clear,140,2013-09-22 13:33:00
8:52 AM,57.2,48.2,72,29.87,10.0,SSE,12.7,21.9,N/A,,Clear,150,2013-09-22 13:52:00
9:12 AM,57.2,48.2,72,29.88,10.0,SSE,12.7,19.6,N/A,,Clear,150,2013-09-22 14:12:00
9:33 AM,60.8,48.2,63,29.88,10.0,SSE,10.4,17.3,N/A,,Clear,160,2013-09-22 14:33:00
9:52 AM,62.6,50.0,63,29.88,10.0,SSE,12.7,-,N/A,,Clear,160,2013-09-22 14:52:00
10:12 AM,64.4,51.8,64,29.88,10.0,SSE,11.5,-,N/A,,Clear,160,2013-09-22 15:12:00
10:33 AM,66.2,51.8,60,29.88,10.0,SSE,12.7,17.3,N/A,,Clear,150,2013-09-22 15:33:00
10:52 AM,68.0,51.8,56,29.87,10.0,SSE,11.5,-,N/A,,Clear,160,2013-09-22 15:52:00
11:12 AM,69.8,51.8,53,29.87,10.0,SSE,11.5,18.4,N/A,,Clear,160,2013-09-22 16:12:00
11:33 AM,71.6,51.8,50,29.86,10.0,South,9.2,18.4,N/A,,Clear,170,2013-09-22 16:33:00
11:52 AM,71.6,51.8,50,29.86,10.0,SSE,11.5,-,N/A,,Clear,160,2013-09-22 16:52:00
12:12 PM,73.4,51.8,47,29.85,10.0,SSE,12.7,17.3,N/A,,Clear,160,2013-09-22 17:12:00
12:33 PM,75.2,51.8,44,29.85,10.0,SSE,13.8,19.6,N/A,,Clear,150,2013-09-22 17:33:00
12:52 PM,75.2,51.8,44,29.85,10.0,SSE,13.8,21.9,N/A,,Clear,150,2013-09-22 17:52:00
1:12 PM,77.0,51.8,41,29.84,10.0,SSE,16.1,-,N/A,,Clear,150,2013-09-22 18:12:00
1:33 PM,78.8,51.8,39,29.84,10.0,South,12.7,21.9,N/A,,Clear,170,2013-09-22 18:33:00
1:52 PM,78.8,51.8,39,29.83,10.0,South,13.8,21.9,N/A,,Clear,170,2013-09-22 18:52:00
2:13 PM,78.8,50.0,36,29.82,10.0,SSE,17.3,23.0,N/A,,Clear,160,2013-09-22 19:13:00
2:32 PM,80.6,50.0,34,29.82,10.0,SSE,11.5,26.5,N/A,,Clear,160,2013-09-22 19:32:00
2:53 PM,80.6,48.2,32,29.81,10.0,SSE,19.6,24.2,N/A,,Unknown,160,2013-09-22 19:53:00
3:12 PM,80.6,48.2,32,29.80,10.0,SSE,18.4,26.5,N/A,,Clear,150,2013-09-22 20:12:00
3:33 PM,80.6,48.2,32,29.80,10.0,SSE,12.7,25.3,N/A,,Clear,160,2013-09-22 20:33:00
3:52 PM,80.6,48.2,32,29.80,10.0,SSE,15.0,26.5,N/A,,Clear,160,2013-09-22 20:52:00
4:12 PM,80.6,46.4,30,29.79,10.0,SSE,18.4,24.2,N/A,,Clear,160,2013-09-22 21:12:00
4:32 PM,80.6,46.4,30,29.79,10.0,SSE,21.9,26.5,N/A,,Clear,150,2013-09-22 21:32:00
4:52 PM,80.6,46.4,30,29.79,10.0,SSE,17.3,25.3,N/A,,Clear,160,2013-09-22 21:52:00
5:13 PM,80.6,48.2,32,29.79,10.0,SSE,12.7,20.7,N/A,,Clear,160,2013-09-22 22:13:00
5:32 PM,80.6,48.2,32,29.79,10.0,SSE,13.8,21.9,N/A,,Clear,160,2013-09-22 22:32:00
5:52 PM,78.8,48.2,34,29.79,10.0,SSE,11.5,24.2,N/A,,Clear,160,2013-09-22 22:52:00
6:13 PM,78.8,48.2,34,29.80,10.0,SSE,10.4,19.6,N/A,,Clear,160,2013-09-22 23:13:00
6:32 PM,77.0,48.2,36,29.80,10.0,SSE,11.5,20.7,N/A,,Clear,160,2013-09-22 23:32:00
6:52 PM,75.2,50.0,41,29.80,10.0,SSE,9.2,-,N/A,,Clear,160,2013-09-22 23:52:00
7:13 PM,73.4,50.0,44,29.80,10.0,SSE,8.1,-,N/A,,Clear,160,2013-09-23 00:13:00
7:32 PM,71.6,50.0,46,29.81,10.0,SSE,6.9,-,N/A,,Clear,160,2013-09-23 00:32:00
7:52 PM,68.0,51.8,56,29.81,10.0,SSE,8.1,-,N/A,,Clear,150,2013-09-23 00:52:00
8:12 PM,68.0,51.8,56,29.82,10.0,SSE,8.1,-,N/A,,Clear,150,2013-09-23 01:12:00
8:32 PM,66.2,51.8,60,29.82,10.0,SSE,8.1,-,N/A,,Clear,150,2013-09-23 01:32:00
8:52 PM,64.4,51.8,64,29.82,10.0,SE,6.9,-,N/A,,Clear,140,2013-09-23 01:52:00
9:12 PM,64.4,51.8,64,29.82,10.0,SSE,11.5,-,N/A,,Clear,150,2013-09-23 02:12:00
9:33 PM,66.2,51.8,60,29.83,10.0,SSE,11.5,-,N/A,,Clear,150,2013-09-23 02:33:00
9:52 PM,64.4,51.8,64,29.83,10.0,SSE,11.5,-,N/A,,Clear,150,2013-09-23 02:52:00
10:12 PM,64.4,53.6,68,29.83,10.0,SE,10.4,-,N/A,,Clear,140,2013-09-23 03:12:00
10:33 PM,62.6,53.6,72,29.83,10.0,SSE,11.5,-,N/A,,Clear,150,2013-09-23 03:33:00
10:52 PM,64.4,53.6,68,29.83,10.0,SE,11.5,-,N/A,,Clear,140,2013-09-23 03:52:00
11:13 PM,66.2,53.6,64,29.84,10.0,SSE,15.0,21.9,N/A,,Clear,160,2013-09-23 04:13:00
11:32 PM,64.4,53.6,68,29.84,10.0,SSE,11.5,-,N/A,,Clear,150,2013-09-23 04:32:00
11:52 PM,62.6,53.6,72,29.85,10.0,SSE,9.2,-,N/A,,Clear,150,2013-09-23 04:52:00